Arbor Vitae, WI

5:00 AM CDT on April 25, 2018 (GMT -0500)
Lakeland-Lee Memorial

Weather History for KARV - May, 2013

Change the Weather History Date:

Wednesday, May 22, 2013

  Actual Average Record
Temperature  
Mean Temperature 50 °F -  
Max Temperature 56 °F 71 °F 90 °F (1964)
Min Temperature 44 °F 43 °F 24 °F (1963)
Degree Days  
Heating Degree Days 15    
Moisture  
Dew Point 47 °F    
Average Humidity 89    
Maximum Humidity 100    
Minimum Humidity 78    
Precipitation  
Precipitation 0.08 in - - ()
Sea Level Pressure  
Sea Level Pressure 29.80 in    
Wind  
Wind Speed 7 mph (NE)    
Max Wind Speed 13 mph    
Max Gust Speed 23 mph    
Visibility 7 miles    
Events Rain    
Averages and records for this station are not official NWS values.
T = Trace of Precipitation, MM = Missing Value Source: NWS Daily Summary

Daily Weather History Graph

Daily Weather History Graph

Search for Another Location

Airport or City:

Astronomy

May. 22, 2013 Rise Set
Actual Time 5:19 AM CDT 8:32 PM CDT
Civil Twilight 4:43 AM CDT 9:08 PM CDT
Nautical Twilight 3:56 AM CDT 9:55 PM CDT
Astronomical Twilight 2:58 AM CDT 10:54 PM CDT
Moon 5:47 PM CDT (5/22) 3:32 AM CDT (5/22)
Length of Visible Light 16h 25m
Length of Day
15h 13m
Waxing Gibbous, 91% of the Moon is Illuminated
May 22
Waxing Gibbous
May 24
Full
May 31
Last Quarter
Jun 8
New
Jun 16
First Quarter

Hourly Weather History & Observations

Time (CDT) Temp. Windchill Dew Point Humidity Pressure Visibility Wind Dir Wind Speed Gust Speed Precip Events Conditions
12:15 AM 51.8 °F - 50.0 °F 94% 29.72 in 3.0 mi North 5.8 mph - 0.05 in Rain Heavy Rain
12:35 AM 51.8 °F - 50.0 °F 94% 29.73 in 10.0 mi NNE 4.6 mph - 0.05 in   Overcast
12:55 AM 51.8 °F - 50.0 °F 94% 29.72 in 7.0 mi NNE 6.9 mph - 0.05 in   Overcast
1:15 AM 51.8 °F - 50.0 °F 94% 29.72 in 10.0 mi NNE 5.8 mph - N/A   Overcast
1:35 AM 50.0 °F - 48.2 °F 94% 29.72 in 10.0 mi North 8.1 mph - N/A   Overcast
1:55 AM 48.2 °F - 46.4 °F 93% 29.71 in 7.0 mi NNE 6.9 mph - N/A   Overcast
2:15 AM 48.2 °F - 46.4 °F 93% 29.72 in 7.0 mi NE 6.9 mph - N/A   Overcast
2:35 AM 46.4 °F 42.9 °F 46.4 °F 100% 29.72 in 10.0 mi NE 6.9 mph - N/A   Overcast
2:55 AM 48.2 °F - 46.4 °F 93% 29.72 in 10.0 mi Calm Calm - N/A   Overcast
3:15 AM 46.4 °F 44.3 °F 44.6 °F 93% 29.72 in 3.0 mi NE 4.6 mph - N/A   Overcast
3:35 AM 46.4 °F 43.5 °F 44.6 °F 93% 29.73 in 4.0 mi ENE 5.8 mph - N/A   Overcast
3:55 AM 46.4 °F 44.3 °F 44.6 °F 93% 29.74 in 1.8 mi NE 4.6 mph - N/A   Overcast
4:15 AM 46.4 °F - 44.6 °F 93% 29.74 in 1.5 mi Calm Calm - N/A   Overcast
4:35 AM 46.4 °F 45.2 °F 44.6 °F 93% 29.74 in 1.5 mi NE 3.5 mph - N/A   Overcast
4:55 AM 44.6 °F 43.1 °F 44.6 °F 100% 29.74 in 2.5 mi NNE 3.5 mph - N/A   Overcast
5:15 AM 46.4 °F 44.3 °F 44.6 °F 93% 29.74 in 3.0 mi NNE 4.6 mph - N/A   Overcast
5:35 AM 44.6 °F 42.2 °F 44.6 °F 100% 29.73 in 2.0 mi NNE 4.6 mph - N/A   Overcast
5:55 AM 46.4 °F 45.2 °F 44.6 °F 93% 29.74 in 3.0 mi NE 3.5 mph - N/A   Overcast
6:15 AM 46.4 °F 44.3 °F 44.6 °F 93% 29.74 in 4.0 mi NE 4.6 mph - N/A   Overcast
6:35 AM 46.4 °F 45.2 °F 44.6 °F 93% 29.74 in 5.0 mi NNE 3.5 mph - N/A   Overcast
6:55 AM 48.2 °F - 46.4 °F 93% 29.74 in 3.0 mi NNE 3.5 mph - N/A   Overcast
7:15 AM 48.2 °F - 46.4 °F 93% 29.75 in 4.0 mi ENE 3.5 mph - N/A   Overcast
7:35 AM 48.2 °F - 46.4 °F 93% 29.76 in 2.5 mi NE 4.6 mph - N/A   Overcast
7:55 AM 48.2 °F - 46.4 °F 93% 29.76 in 1.8 mi NNE 4.6 mph - N/A   Overcast
8:15 AM 48.2 °F - 46.4 °F 93% 29.75 in 1.0 mi NNE 5.8 mph - N/A   Overcast
8:35 AM - - - N/A% - - North - - N/A   Unknown
8:55 AM 51.8 °F - 50.2 °F 94% 29.76 in 2.5 mi NNE 5.8 mph - 0.03 in   Overcast
9:15 AM 51.8 °F - 50.0 °F 94% 29.74 in 4.0 mi NE 9.2 mph - N/A   Overcast
9:35 AM 51.8 °F - 50.0 °F 94% 29.74 in 7.0 mi ENE 9.2 mph - N/A   Overcast
9:55 AM 51.8 °F - 50.0 °F 94% 29.76 in 7.0 mi NNE 5.8 mph - N/A   Overcast
10:15 AM 51.8 °F - 49.6 °F 92% 29.76 in 7.0 mi NE 9.2 mph - N/A   Overcast
10:35 AM 51.8 °F - 49.3 °F 91% 29.77 in 7.0 mi NE 6.9 mph - N/A   Overcast
10:55 AM 51.8 °F - 49.1 °F 90% 29.77 in 10.0 mi NE 8.1 mph - N/A   Overcast
11:15 AM 51.8 °F - 49.1 °F 90% 29.77 in 7.0 mi NE 8.1 mph - N/A   Overcast
11:35 AM 51.8 °F - 48.4 °F 88% 29.77 in 10.0 mi NNE 6.9 mph - N/A   Overcast
12:15 PM 52.7 °F - 48.0 °F 84% 29.77 in 10.0 mi NNE 11.5 mph - N/A   Overcast
12:35 PM 54.1 °F - 48.7 °F 82% 29.77 in 10.0 mi NNE 12.7 mph 19.6 mph N/A   Overcast
12:55 PM 54.5 °F - 48.4 °F 80% 29.77 in 10.0 mi NE 9.2 mph 16.1 mph N/A   Overcast
1:15 PM 54.5 °F - 48.2 °F 79% 29.77 in 10.0 mi NE 8.1 mph 16.1 mph N/A   Overcast
1:35 PM 56.5 °F - 49.8 °F 78% 29.77 in 10.0 mi NNE 11.5 mph 16.1 mph N/A   Overcast
1:55 PM 54.5 °F - 48.4 °F 80% 29.78 in 10.0 mi NE 8.1 mph 16.1 mph N/A   Overcast
2:15 PM 54.5 °F - 48.0 °F 79% 29.78 in 10.0 mi NE 10.4 mph 17.3 mph N/A   Overcast
2:35 PM 54.5 °F - 48.2 °F 79% 29.79 in 10.0 mi ENE 9.2 mph - N/A   Overcast
2:55 PM 52.3 °F - 46.8 °F 81% 29.79 in 10.0 mi North 10.4 mph - N/A   Overcast
3:15 PM 51.8 °F - 46.0 °F 81% 29.81 in 10.0 mi NE 9.2 mph 18.4 mph N/A   Overcast
3:35 PM 51.8 °F - 46.4 °F 82% 29.81 in 10.0 mi NE 10.4 mph 19.6 mph N/A   Overcast
3:55 PM 51.8 °F - 46.0 °F 81% 29.81 in 10.0 mi NE 9.2 mph - N/A   Overcast
4:15 PM 51.8 °F - 46.4 °F 82% 29.82 in 10.0 mi NE 8.1 mph - N/A   Overcast
4:35 PM 51.8 °F - 46.6 °F 82% 29.82 in 10.0 mi NNE 12.7 mph 20.7 mph N/A   Overcast
4:55 PM 51.8 °F - 46.4 °F 82% 29.83 in 10.0 mi NNE 10.4 mph 19.6 mph N/A   Overcast
5:15 PM 51.8 °F - 46.6 °F 82% 29.84 in 10.0 mi NNE 9.2 mph 19.6 mph N/A   Overcast
5:35 PM 51.8 °F - 46.6 °F 82% 29.85 in 10.0 mi NE 10.4 mph 19.6 mph N/A   Overcast
5:55 PM 51.8 °F - 46.8 °F 83% 29.85 in 10.0 mi NNE 5.8 mph 23.0 mph N/A   Overcast
6:15 PM 51.8 °F - 47.5 °F 85% 29.85 in 10.0 mi NNE 10.4 mph 19.6 mph N/A   Overcast
6:35 PM 49.3 °F - 46.2 °F 89% 29.86 in 4.0 mi NNE 9.2 mph 16.1 mph N/A Rain Light Rain
6:55 PM 49.3 °F - 46.8 °F 91% 29.87 in 4.0 mi NNE 9.2 mph - N/A   Drizzle
7:15 PM 49.3 °F - 47.3 °F 93% 29.88 in 3.0 mi NNE 8.1 mph - N/A   Drizzle
7:35 PM 50.0 °F - 47.7 °F 92% 29.88 in 7.0 mi NNE 10.4 mph 19.6 mph N/A   Light Drizzle
7:55 PM 51.8 °F - 49.3 °F 91% 29.89 in 7.0 mi NNE 8.1 mph - N/A   Overcast
8:15 PM 51.8 °F - 49.1 °F 90% 29.89 in 10.0 mi NE 8.1 mph 17.3 mph N/A   Overcast
8:35 PM 51.8 °F - 48.7 °F 89% 29.89 in 10.0 mi NE 8.1 mph 17.3 mph N/A   Overcast
8:55 PM 51.8 °F - 48.7 °F 89% 29.90 in 10.0 mi NE 6.9 mph - N/A   Overcast
9:15 PM 51.8 °F - 48.7 °F 89% 29.91 in 10.0 mi NE 9.2 mph - N/A   Drizzle
9:35 PM 51.8 °F - 48.7 °F 89% 29.92 in 10.0 mi NNE 6.9 mph - N/A   Overcast
9:55 PM 51.8 °F - 48.2 °F 88% 29.93 in 10.0 mi NE 10.4 mph 18.4 mph N/A   Overcast
10:15 PM 49.8 °F - 46.6 °F 89% 29.94 in 10.0 mi NNE 10.4 mph 16.1 mph N/A   Overcast
10:35 PM 48.9 °F - 45.5 °F 88% 29.95 in 10.0 mi NNE 12.7 mph 20.7 mph N/A   Overcast
10:55 PM 45.9 °F 40.8 °F 41.9 °F 86% 29.96 in 10.0 mi NNE 10.4 mph - N/A   Overcast
11:15 PM 45.5 °F 40.3 °F 41.4 °F 85% 29.96 in 10.0 mi NNE 10.4 mph 18.4 mph N/A   Overcast
11:35 PM 45.5 °F 40.3 °F 41.9 °F 87% 29.98 in 10.0 mi NNE 10.4 mph - N/A   Overcast
11:55 PM 45.3 °F 40.1 °F 41.7 °F 87% 29.98 in 10.0 mi North 10.4 mph - N/A   Overcast